Location: Buckeye Ditch
(40.9104°N, 122.9517°W)
Time: 17:30:18
(UTC+00:00)

SR - Pass Details

Date: 26 May 2025
Orbit: 570 x 855 km, 66.7° (Epoch: 13 June)

Event Time Altitude Azimuth Distance (km) Brightness Sun altitude
Rises 16:19:06 0° 324° (NW) 3,249 ? 38.0°
Reaches altitude 10° 16:21:41 10° 318° (NW) 2,273 ? 38.5°
Maximum altitude 16:26:33 43° 248° (WSW) 989 ? 39.4°
Drops below altitude 10° 16:31:01 10° 177° (S) 2,079 ? 40.3°
Sets 16:33:17 0° 171° (S) 2,942 ? 40.7°
